Theta_e
356 356 356 356 357 357 357 361 361 362 362 362 362 363 363 364 362 362 365 364 364 363 364 365 366 365 363 364 363 366 369 367 368 370 370 369 369 369 369 369 367 366 368 367 366 366 366 366 367 368 370 366 365 365 363 363 364 362 364 362 360 362 360 358 353 353 359 363 358 356 358 361 356 362 360 358 359 363 362 367 373 369 365 365 367
356 358 358 356 355 356 356 358 360 361 360 361 361 362 362 363 365 365 362 364 365 363 364 363 365 365 364 365 367 366 369 371 367 368 368 368 368 364 366 368 367 367 367 366 366 365 366 366 365 366 370 367 365 362 363 362 361 360 362 361 359 360 364 358 355 354 353 359 360 363 359 362 357 363 362 360 360 365 363 363 363 364 365 367 365
355 359 358 358 357 356 357 357 358 358 356 357 356 356 359 361 364 363 361 361 365 364 364 363 366 367 365 366 368 367 370 368 368 368 368 368 367 364 362 365 365 364 363 365 364 366 365 365 363 364 364 364 365 363 362 362 362 362 361 362 361 360 363 363 359 355 354 356 362 358 359 362 361 360 363 362 366 366 368 363 359 358 362 364 364
358 359 358 358 357 357 358 357 355 355 354 355 355 356 355 359 362 361 361 361 361 366 365 365 367 368 366 367 368 368 368 367 367 368 369 368 368 368 367 367 365 364 364 363 362 364 364 363 362 362 364 364 365 365 364 363 362 363 362 363 364 362 364 364 364 359 357 355 360 360 360 360 361 362 362 364 363 363 362 363 365 364 364 361 361
358 357 358 358 359 358 356 356 356 356 355 355 355 356 356 356 360 360 360 359 361 363 366 367 367 367 363 365 366 368 367 368 368 366 366 368 368 365 366 367 366 366 364 365 365 365 363 363 362 363 363 362 361 359 360 361 361 361 360 361 362 362 362 363 364 363 360 358 357 363 366 364 364 365 366 361 360 362 366 369 366 364 367 363 358
361 361 361 359 360 360 360 358 356 357 356 356 356 356 356 357 357 359 359 359 361 360 362 363 363 366 365 365 365 367 368 368 369 368 365 365 367 366 366 367 365 365 365 364 364 365 363 363 363 364 362 360 359 359 362 361 360 357 360 361 361 362 363 363 365 365 363 360 360 358 362 358 360 362 366 364 358 357 359 361 363 367 369 361 357
361 360 360 360 360 361 360 358 358 357 358 357 358 358 358 357 357 356 359 359 359 358 358 360 363 363 364 364 362 365 366 366 368 369 367 366 366 367 363 365 365 366 365 363 362 362 362 362 364 364 363 363 360 359 360 361 358 358 361 363 360 361 358 358 360 361 359 357 357 358 358 360 362 358 363 367 364 362 359 356 356 359 366 368 364
355 357 357 357 357 357 358 359 361 361 360 361 360 359 359 359 359 359 359 359 357 357 356 355 359 360 361 361 363 364 365 365 366 368 367 365 364 364 364 363 362 363 363 364 363 361 361 361 358 360 363 365 365 364 363 362 362 359 360 362 363 362 359 357 357 357 357 354 354 353 355 358 360 362 363 366 363 362 364 357 353 354 357 363 365
352 350 352 354 357 358 358 358 361 362 360 360 359 359 359 359 360 360 360 359 357 358 358 357 357 358 359 361 362 362 360 361 362 364 364 364 363 361 362 363 362 362 363 361 361 363 362 360 360 360 364 365 366 363 362 363 361 360 364 365 365 362 361 359 359 358 358 356 356 358 357 358 359 360 357 357 355 353 356 359 357 357 358 359 363
350 348 347 349 351 352 354 355 355 356 356 355 356 358 358 359 357 358 359 359 359 360 360 359 358 357 358 360 361 359 359 359 363 355 356 361 363 360 361 363 363 362 362 362 360 360 359 359 358 362 364 363 362 358 353 353 355 358 361 363 363 363 362 359 358 357 358 355 352 351 349 348 346 349 352 355 358 361 358 359 356 355 357 357 360
347 346 346 348 350 350 349 349 352 353 353 352 353 354 355 357 358 357 357 358 359 361 359 357 357 356 355 356 356 356 356 357 355 340 338 341 355 358 360 362 363 363 361 362 361 359 359 361 362 361 364 363 362 356 352 350 351 352 352 355 359 361 359 356 356 358 356 354 353 353 350 351 353 353 352 350 353 355 355 357 355 355 355 352 350
346 345 346 348 349 349 350 348 348 348 349 349 350 352 354 355 356 356 355 356 358 357 356 358 359 357 356 356 354 354 355 347 334 335 336 334 343 355 356 357 357 359 360 359 359 359 359 358 358 357 358 361 361 362 364 359 350 349 348 350 350 353 355 359 359 357 358 356 355 355 354 353 354 356 352 351 355 355 357 357 357 356 354 352 353
342 342 344 346 349 351 349 349 349 349 349 350 350 351 351 352 351 352 355 356 356 356 357 356 357 357 358 358 357 356 356 338 331 332 332 331 331 344 352 355 355 355 357 359 359 359 360 359 357 356 355 358 359 359 362 362 361 353 350 349 350 347 340 339 345 358 358 357 356 355 355 356 356 358 359 359 362 356 355 353 355 356 357 356 355
337 338 340 343 345 346 348 349 349 350 351 350 350 350 352 351 352 355 355 355 355 354 353 355 356 357 357 357 358 356 357 338 329 328 329 329 329 337 353 353 354 355 357 357 357 357 359 359 357 356 358 360 362 360 360 361 361 362 363 362 361 360 356 343 339 339 348 355 356 355 359 364 360 362 364 365 360 356 353 351 354 353 354 355 360
333 335 337 338 341 342 343 344 345 347 348 348 347 347 348 349 350 351 353 353 354 354 355 354 355 354 354 354 355 354 347 324 323 321 322 326 326 338 356 353 354 355 356 356 358 358 358 357 358 358 359 360 360 360 358 357 359 358 358 357 357 358 360 358 358 361 360 356 356 357 358 360 361 361 362 364 362 361 360 357 356 356 358 361 361
332 333 333 334 336 338 340 341 340 341 344 346 347 346 346 347 346 349 350 352 353 354 355 354 354 354 356 356 356 352 340 322 321 320 319 323 328 353 357 358 357 356 356 357 357 359 359 359 359 359 359 360 360 353 355 357 356 355 356 357 358 358 357 360 345 348 358 359 360 358 357 358 346 362 362 355 356 358 359 360 360 360 359 357 356
331 332 333 334 336 337 338 338 340 341 342 343 342 343 345 346 348 350 348 350 351 351 351 352 353 354 354 354 350 343 342 327 319 317 318 321 338 356 357 357 357 356 356 356 357 357 357 358 359 357 357 359 353 338 337 350 354 354 355 355 355 355 355 358 344 332 331 329 329 330 330 330 330 328 326 326 341 347 351 350 349 351 351 351 353
331 332 331 333 334 335 337 338 338 340 341 342 343 343 345 348 349 350 348 344 342 343 344 345 346 347 348 348 348 344 342 331 316 315 318 321 343 353 353 356 356 356 356 356 357 358 357 351 352 356 357 360 328 327 330 346 354 354 354 354 353 354 356 357 360 360 330 324 323 324 324 326 326 325 326 325 324 333 347 346 349 350 350 352 350
331 331 331 333 334 335 336 337 338 340 340 341 344 345 345 346 347 348 347 344 341 342 343 342 344 346 346 344 342 342 340 336 317 315 316 319 338 352 353 355 355 356 356 357 358 358 359 356 352 353 352 343 319 323 324 343 352 353 354 353 352 353 355 360 359 358 360 360 362 367 358 343 347 350 352 336 331 339 346 349 351 351 352 353 354
332 333 333 333 334 335 336 337 337 338 340 339 341 342 344 343 343 344 343 343 343 342 343 342 341 344 345 345 341 340 340 340 331 313 313 316 322 342 345 345 347 350 353 353 354 357 359 360 357 333 324 319 316 315 319 321 347 355 355 353 353 353 357 358 357 356 357 358 359 359 359 362 362 363 362 363 360 356 352 353 354 355 354 355 354
331 332 333 332 333 334 335 336 335 335 337 336 338 338 339 339 340 340 340 341 340 339 339 339 337 338 338 339 340 341 340 339 334 314 313 313 316 329 339 339 339 343 347 350 351 353 354 355 355 327 320 319 316 312 312 316 324 346 354 354 356 355 347 353 356 354 357 358 358 358 359 360 360 361 360 361 360 362 360 360 359 360 359 356 354
330 331 331 332 332 333 334 335 334 333 336 335 334 334 337 339 338 338 338 338 339 339 338 335 331 330 333 335 336 337 339 337 339 321 314 312 311 316 333 335 332 339 341 345 344 345 347 348 352 335 317 314 311 308 307 311 317 332 347 330 326 326 345 351 352 353 354 355 355 355 356 357 358 358 358 358 359 361 360 362 363 365 363 361 358
328 328 329 330 332 333 335 335 335 334 332 333 332 332 333 334 337 340 339 337 336 335 335 334 331 330 331 334 335 336 336 337 331 333 318 310 309 310 311 322 319 340 339 338 338 339 342 343 343 333 315 309 306 307 309 309 320 334 319 315 316 317 329 341 347 348 350 351 352 353 354 355 356 356 357 358 360 363 362 364 364 364 364 364 363
327 326 327 328 329 330 332 334 335 336 335 334 332 331 331 333 335 336 337 335 333 332 331 331 329 327 328 330 334 336 336 335 334 329 327 314 309 307 309 311 315 328 337 338 338 337 337 337 334 314 307 304 305 308 309 314 326 313 310 312 316 324 337 343 346 348 347 346 347 349 352 354 355 355 356 359 359 362 362 362 362 362 362 363 363
323 323 324 325 327 328 330 331 332 333 334 333 330 329 329 330 330 334 334 333 332 330 329 329 329 329 329 329 331 333 335 336 336 333 328 324 315 311 312 314 314 316 337 337 335 334 323 311 308 308 310 310 311 314 321 330 323 319 317 317 329 344 347 347 348 348 347 346 346 348 350 352 354 355 358 360 361 361 361 360 360 361 362 363 363
323 323 322 323 324 326 326 326 329 331 332 332 331 329 329 328 329 331 331 330 330 329 328 327 326 327 327 329 330 331 333 334 333 333 333 331 327 318 316 318 324 325 329 330 324 318 315 316 318 323 328 332 343 342 340 338 328 326 325 332 348 348 348 347 348 346 345 346 346 346 348 351 352 356 358 358 357 355 356 356 356 356 357 357 357
323 323 322 321 323 325 325 325 325 328 330 329 329 328 328 328 329 329 329 327 328 327 325 325 325 324 326 327 329 330 330 329 329 330 332 332 332 334 335 333 329 329 335 337 335 337 337 337 332 325 326 324 328 332 330 330 335 334 335 334 334 336 339 340 344 346 346 345 345 347 349 351 353 353 353 353 353 354 356 354 353 353 355 355 354
322 321 321 322 322 323 323 324 325 325 328 328 325 325 326 327 327 326 326 326 325 325 325 324 323 324 324 327 328 328 327 326 326 327 327 327 329 332 333 331 332 333 331 332 335 337 335 333 329 332 332 332 331 331 329 331 331 329 330 331 332 336 336 336 338 335 334 334 336 341 344 348 349 350 351 351 352 353 355 352 352 351 351 351 350
323 321 321 322 322 324 323 323 324 325 328 329 329 330 326 325 327 327 330 330 329 325 325 324 325 325 326 327 327 325 326 325 324 310 315 306 313 323 328 328 329 331 325 311 328 333 332 330 328 327 326 325 325 325 325 325 326 328 328 328 330 331 331 331 330 328 327 329 331 334 334 336 339 345 348 348 350 351 355 354 355 352 352 351 348
322 321 322 322 322 323 323 323 326 326 326 326 327 327 321 307 316 328 325 322 305 300 308 325 325 328 327 326 328 325 324 324 305 299 298 297 297 297 299 298 298 312 312 306 321 329 326 325 324 323 322 322 321 321 321 322 323 323 324 322 326 327 325 327 326 323 324 325 327 328 328 328 331 335 339 341 343 345 347 342 351 352 349 348 347
320 320 320 320 322 323 324 324 326 328 328 327 327 325 323 323 302 301 314 316 305 294 292 294 298 306 326 326 323 307 307 302 298 296 295 296 295 295 296 298 299 299 301 323 326 324 322 321 321 321 320 320 319 319 320 320 321 321 320 322 322 323 322 323 322 321 321 323 324 324 324 326 328 331 333 333 334 337 340 344 347 348 348 347 346
319 318 319 320 321 323 323 324 324 324 325 326 326 325 323 323 324 306 301 305 301 296 296 297 298 300 301 307 320 326 311 301 296 295 295 294 295 295 297 296 296 296 298 303 326 322 321 320 320 319 319 318 318 319 318 318 318 319 319 318 319 320 320 320 319 320 321 322 321 321 323 325 326 327 327 329 330 332 334 334 337 340 344 347 347
318 318 319 320 320 321 320 322 322 323 322 323 322 323 321 320 318 321 321 300 298 300 300 299 297 297 298 296 294 297 298 296 294 294 294 294 293 295 295 295 295 297 303 320 323 320 321 320 318 319 318 318 318 318 318 318 318 318 318 318 318 318 320 321 320 319 319 319 319 320 321 322 322 323 325 326 326 326 327 329 333 335 338 340 341
318 317 317 318 318 318 319 320 320 320 321 321 321 320 320 320 320 320 319 321 320 308 300 298 298 298 296 296 299 298 298 297 296 295 293 294 293 295 294 312 299 296 307 322 320 320 319 318 318 317 317 317 317 317 316 316 316 317 317 317 318 319 320 321 319 318 317 317 318 318 319 319 320 321 321 322 323 324 325 325 327 328 329 330 331
317 317 315 315 317 317 317 318 318 320 320 320 319 319 319 320 320 318 318 318 317 318 320 323 309 303 315 309 300 297 300 298 298 297 294 294 294 294 297 322 323 321 322 320 319 318 317 317 317 316 317 316 316 316 315 316 316 315 315 316 316 316 317 317 317 317 317 317 317 317 317 317 319 319 318 319 319 320 322 323 324 324 324 323 322
315 314 315 315 315 316 316 317 317 317 317 318 319 318 318 318 317 317 317 318 318 317 318 319 320 312 304 303 301 299 300 298 299 297 297 294 294 297 320 318 317 317 317 318 317 317 317 316 316 316 316 315 316 315 315 314 314 314 314 314 314 314 314 315 316 315 316 316 316 316 314 317 317 316 317 317 317 318 318 319 319 319 319 319 320
313 313 314 314 314 314 314 315 316 316 314 315 316 316 316 316 316 316 317 316 316 316 316 318 319 319 317 320 316 300 299 303 302 299 297 296 292 310 319 317 317 317 316 316 316 316 315 315 315 315 315 314 315 314 314 314 314 315 313 314 313 313 313 313 313 314 314 314 315 316 316 315 315 315 314 313 313 314 315 316 316 316 316 315 315
313 312 313 313 313 312 312 313 312 311 313 313 314 314 314 315 315 314 314 315 314 314 314 315 314 315 314 316 317 318 316 308 304 304 303 299 312 321 318 318 318 316 315 315 315 314 314 314 315 314 314 314 313 313 313 313 313 312 312 313 313 313 311 312 313 314 315 314 314 315 314 314 314 313 312 312 311 312 313 314 314 314 315 315 316
312 311 310 309 309 311 311 311 311 310 310 311 310 311 311 312 312 312 312 313 313 312 313 313 313 313 313 315 315 316 315 314 314 314 315 316 317 317 317 317 316 316 315 314 314 314 313 313 313 314 313 312 312 312 312 311 311 311 312 311 311 311 311 311 312 313 312 312 312 313 313 313 313 313 312 311 311 311 311 312 312 312 312 312 314
311 310 309 307 309 308 309 309 308 308 308 308 308 309 309 310 310 310 311 311 311 311 311 311 311 311 312 313 313 313 311 311 312 313 313 314 314 315 315 314 314 314 313 313 313 313 312 312 312 312 312 311 311 311 311 311 311 310 310 310 310 309 310 310 310 310 310 311 311 311 311 311 312 312 312 311 311 311 310 309 310 310 311 311 312
310 309 309 308 307 308 307 308 307 306 307 307 307 307 308 309 309 310 310 309 309 309 309 310 310 310 311 311 301 302 310 310 311 311 312 312 312 312 312 312 312 312 312 312 312 312 312 311 311 311 311 311 311 311 311 310 310 309 309 309 310 309 309 310 310 309 309 309 310 310 310 310 310 310 309 310 308 309 310 310 310 310 310 310 311
309 308 308 307 307 306 307 306 306 306 306 306 306 306 308 309 309 308 308 308 308 308 307 308 309 310 307 302 300 297 306 309 309 310 310 311 311 311 311 311 311 311 311 311 311 311 310 310 310 310 309 309 309 309 309 309 309 308 308 308 308 308 308 308 309 309 309 308 309 309 309 309 308 308 307 306 308 309 309 309 310 309 309 310 310
309 307 307 306 306 305 305 305 305 305 305 306 307 307 308 309 308 308 307 306 306 306 306 306 307 308 308 307 306 304 308 308 308 308 308 308 309 309 309 309 310 310 310 310 310 310 309 309 309 309 308 308 308 308 307 307 308 307 307 307 307 307 307 307 307 308 308 308 308 308 307 307 307 307 307 308 308 308 308 308 308 309 309 309 309
307 306 306 305 305 305 305 304 304 305 305 306 307 307 307 308 306 305 305 305 305 305 305 305 306 305 306 305 305 305 305 306 306 306 306 306 306 307 307 308 308 308 308 308 309 308 308 307 306 307 307 307 307 308 307 307 307 307 306 306 306 306 306 306 306 306 306 305 305 305 305 305 305 306 306 306 306 306 306 307 307 308 307 307 307
304 304 303 303 304 304 304 305 305 305 305 305 305 304 305 304 304 303 303 303 304 304 303 303 303 303 303 304 304 304 304 304 305 305 305 305 304 305 305 305 306 306 306 306 306 306 306 305 306 305 305 305 305 306 305 306 307 307 306 305 305 304 304 305 305 306 305 304 303 303 303 303 303 304 303 304 304 304 304 306 306 305 305 306 306
303 303 303 303 303 304 304 304 305 303 303 303 302 302 302 302 302 302 301 302 302 302 302 302 302 302 303 303 303 303 303 303 304 304 304 303 303 303 304 303 303 303 304 304 304 304 304 304 304 303 303 303 304 304 304 304 304 304 305 305 304 304 304 304 305 304 303 302 301 301 300 300 300 300 301 301 301 302 302 303 304 305 305 305 305
303 303 303 303 302 303 303 302 302 301 301 300 300 300 300 300 300 300 300 300 300 301 300 301 301 301 301 301 301 301 302 302 302 301 301 301 302 302 302 302 301 302 302 302 303 303 302 302 302 302 302 302 302 302 302 302 303 302 303 302 303 302 303 303 301 300 299 299 299 299 298 299 299 300 300 300 301 303 302 302 303 303 304 305 304
302 302 302 302 302 301 300 300 299 299 299 299 299 299 299 299 299 299 299 299 298 299 299 299 298 298 299 300 300 300 300 300 300 301 300 300 300 301 301 301 300 300 301 301 301 301 301 301 301 301 301 301 301 301 301 301 301 301 301 301 301 300 298 296 298 298 299 298 298 298 298 298 298 299 299 300 300 300 300 300 301 301 302 302 303
302 302 301 301 300 299 299 298 298 298 297 298 297 297 298 298 298 297 297 296 296 297 297 297 297 297 297 297 297 298 299 299 299 298 298 299 299 300 300 299 300 300 299 298 298 299 300 300 300 300 300 300 300 300 300 300 299 299 299 300 298 294 291 292 294 296 294 295 297 297 298 298 298 299 299 300 300 300 300 301 301 300 300 301 301
301 301 301 300 300 299 299 299 298 298 298 297 297 297 297 297 296 296 296 296 296 296 295 296 295 295 295 295 295 296 297 297 297 297 297 298 298 298 298 298 298 298 297 297 298 298 298 299 299 299 299 300 299 299 299 299 298 298 299 298 293 290 290 290 292 293 294 296 295 295 295 296 297 297 298 299 300 300 300 300 299 299 300 300 301
301 301 300 300 300 299 299 298 297 297 298 297 296 296 296 296 296 296 296 295 295 295 295 295 296 295 295 295 296 295 296 296 297 297 297 297 297 297 297 296 296 297 297 296 296 297 297 298 298 298 298 298 298 298 298 298 298 298 295 293 290 289 289 291 294 291 290 291 293 294 294 295 296 296 297 298 299 299 299 299 299 299 300 300 301
Wind_Speed
9 9 8 8 8 9 8 7 7 6 6 6 6 6 5 5 5 4 3 4 4 5 5 5 5 5 4 4 4 4 4 4 3 3 3 4 4 4 4 4 5 5 4 5 5 5 5 6 6 6 5 5 5 5 5 4 4 4 3 3 4 3 3 4 6 7 5 3 4 6 6 6 6 5 7 7 7 7 8 7 7 7 7 7 8
9 8 7 7 8 8 8 7 7 6 7 6 7 6 5 5 5 4 5 4 5 5 5 5 5 5 5 5 5 5 4 4 5 4 4 4 5 4 5 5 5 5 5 6 5 5 4 5 6 6 5 5 6 6 6 5 5 5 4 4 4 4 2 4 6 6 8 5 5 4 6 4 6 5 6 8 8 7 8 8 7 7 6 7 7
8 8 7 7 8 7 7 7 7 8 8 7 8 8 6 5 4 5 5 4 5 5 5 5 5 5 5 4 5 5 5 5 4 5 5 5 5 6 5 5 5 6 6 6 6 5 5 6 6 5 4 5 5 6 6 6 5 6 7 6 6 6 4 4 5 7 8 7 6 7 5 5 6 7 7 7 7 6 7 7 7 7 6 7 6
7 7 7 8 9 8 7 7 8 8 9 7 8 8 7 6 5 5 5 5 4 5 5 5 5 5 5 5 5 5 5 5 5 5 6 6 6 6 6 6 6 6 6 6 6 5 5 6 6 6 5 6 6 6 6 5 5 5 6 6 6 6 5 4 4 6 7 8 7 7 7 7 7 7 6 6 7 7 7 7 7 7 7 7 7
7 7 7 8 7 7 8 8 8 8 8 7 7 7 7 6 5 6 5 5 5 4 4 5 5 5 6 6 6 6 6 6 6 6 6 6 6 6 6 6 6 6 6 6 6 6 7 7 7 6 6 6 7 6 6 7 6 6 6 5 5 5 4 4 4 4 5 7 8 6 6 6 6 6 5 6 7 7 6 7 7 7 6 7 7
5 5 5 6 6 6 7 7 8 8 8 7 7 7 6 7 6 6 6 6 5 5 5 5 5 6 6 6 6 6 5 6 6 6 7 6 6 6 6 6 7 7 7 7 7 7 7 7 7 6 7 7 7 7 6 7 7 7 7 6 6 5 5 5 4 4 5 6 6 7 6 7 6 6 5 4 6 8 8 7 7 6 5 6 8
5 5 5 5 5 6 6 7 6 6 6 6 5 5 6 6 7 7 6 7 7 7 7 7 6 6 6 6 7 6 6 6 6 6 6 6 6 6 7 7 7 7 7 8 8 7 7 7 7 7 7 7 8 8 7 7 6 7 6 6 6 6 6 6 5 6 6 6 6 6 6 5 5 7 5 4 5 5 6 7 8 6 5 5 7
7 6 6 5 6 6 7 7 6 4 3 3 4 4 3 3 4 4 5 6 7 8 8 7 7 7 7 7 7 6 6 6 6 6 6 7 7 7 7 7 8 7 7 7 7 8 8 8 8 8 7 7 7 7 7 7 6 7 6 5 5 6 6 6 6 6 6 6 6 7 6 6 6 6 6 4 5 4 3 4 7 8 8 7 7
5 5 6 5 5 6 6 6 5 5 4 4 4 4 3 3 3 3 4 5 5 6 6 7 7 7 7 7 7 6 6 6 6 6 6 7 7 8 8 8 8 8 7 8 7 7 8 8 8 8 8 8 9 8 9 7 7 8 7 6 6 5 6 6 6 5 6 6 6 6 6 6 6 6 6 5 6 8 6 5 6 7 7 7 7
3 4 5 4 4 4 5 4 4 5 4 4 3 4 4 3 2 3 3 3 4 4 5 5 6 7 7 7 7 6 6 5 6 9 7 6 6 6 6 6 7 7 7 7 8 8 9 8 8 8 8 9 10 11 11 11 11 10 9 7 7 6 6 7 7 6 6 7 8 7 8 8 9 8 8 8 7 6 6 5 7 7 7 8 7
4 5 5 6 6 5 4 4 5 5 4 4 4 4 4 3 2 2 3 3 3 2 4 5 6 6 6 7 6 6 6 4 4 8 9 9 7 7 6 7 7 7 7 7 8 9 8 8 8 8 9 10 10 12 12 12 12 12 13 13 11 9 9 9 8 7 7 8 8 8 9 9 10 10 9 10 9 7 7 6 7 7 7 7 9
7 7 5 6 8 8 7 6 5 4 4 6 6 6 4 4 4 4 4 4 3 4 4 4 3 4 4 5 6 4 3 8 4 2 6 7 7 7 7 7 6 7 7 8 7 7 8 8 7 6 6 7 7 7 8 10 11 12 12 12 12 12 12 10 9 9 9 8 9 9 9 9 10 9 10 10 8 8 7 7 7 7 8 7 7
9 8 7 6 5 7 7 6 6 6 6 5 5 5 5 5 5 5 5 4 4 5 5 4 4 2 1 1 1 0 1 9 5 3 3 6 8 8 6 7 7 7 7 7 7 7 7 7 7 7 7 6 6 7 7 7 7 10 12 12 12 13 13 14 14 12 11 10 10 11 10 9 10 9 9 8 7 9 9 9 8 8 8 8 8
9 8 7 7 8 8 6 6 5 5 6 6 6 5 5 4 3 3 3 4 5 6 6 5 3 2 1 1 1 1 1 6 4 3 1 3 6 8 5 5 6 7 7 7 7 7 6 6 7 8 7 6 5 6 6 7 7 7 7 7 8 10 12 15 16 17 14 10 10 11 11 9 9 9 10 9 8 9 9 10 9 9 9 9 9
8 8 7 7 7 6 7 7 7 7 6 7 7 6 4 3 3 3 2 3 3 3 4 5 4 5 5 6 3 2 4 8 5 3 2 3 5 6 3 4 4 4 5 6 6 7 7 7 7 8 7 7 5 4 6 7 7 7 8 9 9 9 9 9 8 7 7 9 10 12 12 12 12 12 11 9 10 9 8 10 10 10 10 10 10
8 8 8 7 6 5 5 5 6 6 6 6 6 6 5 4 4 3 3 1 1 1 2 1 2 2 3 3 3 5 5 8 6 5 4 1 6 4 3 3 3 3 4 4 4 5 5 6 6 7 7 7 5 3 6 6 8 9 9 9 9 9 9 9 8 7 9 8 8 9 10 11 11 11 11 11 10 9 8 8 7 8 8 8 9
8 8 7 6 6 6 5 6 6 6 5 5 6 5 4 4 4 3 4 4 5 4 4 5 4 3 3 5 7 6 6 8 9 9 8 6 2 2 2 2 3 3 3 3 3 4 4 4 5 5 6 6 2 3 5 6 7 8 9 9 8 9 9 7 8 12 12 13 14 15 16 16 16 16 16 16 12 9 7 8 10 9 9 9 10
7 7 7 7 7 7 7 7 7 7 6 6 6 5 4 4 6 7 8 8 8 8 7 7 7 7 8 8 6 5 5 7 9 10 11 10 5 2 1 0 1 1 1 1 1 2 2 4 5 5 5 2 9 5 2 3 6 7 8 8 9 9 8 7 3 4 11 13 14 15 15 16 16 17 17 16 16 7 7 9 11 9 9 9 11
7 7 7 7 7 7 6 7 7 7 7 6 6 8 9 9 8 8 7 6 7 6 6 6 6 6 6 6 8 7 5 6 9 10 12 13 9 5 4 2 2 3 4 3 2 2 2 2 2 4 5 6 7 4 1 4 5 6 7 7 8 9 8 6 6 7 7 7 6 6 7 10 10 9 10 15 16 11 10 11 10 10 10 9 9
5 5 5 6 6 6 6 7 7 7 8 7 7 7 6 7 8 8 7 7 7 6 5 5 7 6 5 5 5 6 7 8 10 10 12 13 13 6 4 4 4 4 4 4 4 4 3 3 3 7 7 7 6 5 3 3 4 5 5 7 7 8 7 7 7 8 9 8 9 9 10 10 10 10 9 9 9 10 11 10 10 10 10 10 10
6 6 6 7 6 6 6 7 8 8 7 7 6 7 6 7 6 7 7 6 7 6 6 6 6 6 4 4 6 6 6 6 8 9 9 10 11 8 5 6 5 5 4 4 4 4 4 4 3 9 9 7 7 7 7 6 6 6 7 8 9 8 7 7 7 8 8 9 9 9 9 8 8 8 8 8 8 8 8 10 10 10 9 10 11
6 7 7 7 7 7 6 6 6 6 6 7 7 7 6 5 6 6 5 6 7 6 4 4 4 4 3 3 4 4 6 8 5 8 10 9 10 10 5 6 5 4 4 4 4 5 5 4 3 8 13 12 11 8 6 5 5 5 7 9 11 11 7 6 6 5 6 7 10 11 11 10 9 9 9 9 9 9 9 9 8 9 9 10 11
6 7 7 7 6 6 5 5 5 5 6 7 7 7 6 6 6 5 6 6 7 6 4 3 3 3 4 4 4 5 5 5 10 8 10 11 11 11 9 8 8 5 5 4 5 5 5 6 6 11 13 12 11 11 9 8 6 4 8 10 9 8 7 6 6 6 6 6 7 8 9 10 11 10 9 9 8 8 9 9 10 11 12 13 13
6 6 6 6 5 5 5 4 4 4 5 5 6 6 6 5 5 4 4 5 5 5 4 3 4 5 5 4 4 5 5 4 6 10 8 8 9 10 10 10 10 6 4 4 5 5 5 6 8 12 12 12 11 10 10 7 5 9 10 10 8 6 5 7 7 8 8 8 8 7 8 8 9 9 9 8 9 10 10 11 11 12 12 12 13
7 6 6 5 5 5 5 4 4 4 4 4 5 5 5 5 5 4 4 4 4 5 4 4 5 4 4 5 5 5 6 6 6 8 10 10 11 12 11 12 12 10 5 5 5 5 7 10 12 11 11 10 10 9 5 5 8 8 9 9 7 4 5 6 7 7 8 8 9 9 8 8 8 8 9 9 9 9 10 10 11 11 12 12 12
7 6 6 5 4 3 4 5 4 3 3 3 4 3 4 4 5 4 4 4 4 4 4 4 4 5 4 4 5 5 6 6 7 7 7 8 7 8 7 9 10 9 6 3 4 9 10 10 9 8 7 8 7 8 8 9 11 11 10 8 4 6 6 7 7 7 8 8 8 9 8 8 8 8 9 9 9 9 9 10 10 10 9 10 11
6 5 5 4 4 4 4 3 3 3 3 3 4 4 4 4 4 4 4 4 4 4 4 4 4 4 4 4 4 5 6 6 6 6 6 6 6 5 5 5 5 2 2 3 3 3 4 7 7 5 6 7 7 5 7 8 8 8 7 8 7 7 8 9 9 9 8 9 9 9 9 9 9 8 8 8 9 9 9 8 9 10 9 9 9
5 5 5 4 3 3 3 4 3 3 3 2 3 4 3 3 4 4 4 4 4 4 4 4 4 3 3 3 3 4 4 5 6 5 5 5 5 4 4 4 5 4 5 5 5 5 5 4 5 6 6 6 6 6 6 6 6 7 7 7 7 7 8 9 8 7 7 7 8 9 9 9 9 9 9 9 9 9 9 9 9 9 9 8 9
5 5 4 3 4 3 2 2 2 2 3 4 4 4 3 3 5 5 5 4 3 3 3 3 3 3 3 3 3 3 4 5 4 4 4 5 4 4 5 4 4 3 4 5 5 3 4 4 5 6 6 6 6 6 6 7 6 6 7 7 7 6 6 6 7 7 8 9 8 9 9 10 11 11 10 9 8 9 8 9 9 10 9 9 11
5 4 3 3 3 3 3 3 3 2 3 4 5 5 7 8 7 3 5 4 5 6 5 3 3 2 4 4 4 4 4 3 5 3 5 6 7 6 6 7 7 6 8 10 6 3 3 4 4 5 5 5 5 6 6 6 6 6 6 7 6 6 7 6 6 7 8 8 8 8 8 8 8 9 10 10 10 10 10 10 10 10 10 10 10
4 4 4 3 3 3 3 3 3 3 3 4 5 6 5 4 8 9 7 4 5 4 4 4 5 7 5 3 4 6 6 5 4 4 5 5 6 6 6 6 7 8 8 5 1 3 3 3 4 4 5 4 5 5 5 5 6 6 6 6 5 6 6 6 7 8 8 8 8 8 8 8 8 9 9 10 10 10 10 10 11 10 10 10 10
4 4 4 4 4 3 3 3 3 4 4 3 3 2 3 4 5 2 2 6 4 5 4 4 5 5 7 6 3 2 1 1 3 3 5 5 6 5 4 2 5 6 9 6 2 3 3 3 4 4 4 4 5 5 5 5 5 6 6 6 6 5 6 6 9 9 8 8 8 9 8 8 9 9 9 9 10 10 10 11 10 11 11 11 11
5 4 4 4 4 3 3 3 3 3 4 4 3 2 2 1 2 4 4 3 7 8 7 5 6 5 5 5 7 5 3 7 7 3 1 4 5 5 5 5 6 8 7 2 3 3 3 3 3 4 4 4 4 5 5 5 6 6 6 6 6 6 6 7 8 8 8 8 9 8 8 8 9 9 9 9 9 10 10 10 10 10 11 12 12
4 4 4 4 3 3 3 3 3 3 3 2 2 3 2 1 3 1 3 6 6 5 8 9 7 6 5 3 2 0 2 4 5 7 5 2 4 4 3 2 4 6 4 3 3 3 2 3 3 3 4 4 4 5 5 5 6 6 6 6 7 7 7 7 7 7 8 8 8 8 8 8 9 9 9 9 9 9 9 9 9 9 10 10 11
5 7 6 3 3 3 2 3 2 2 2 2 3 3 3 3 1 2 2 2 2 2 2 5 6 6 3 2 1 3 4 4 3 5 5 4 4 4 4 4 3 2 1 3 4 4 4 4 4 4 4 4 4 4 5 5 5 6 6 7 7 7 8 8 8 8 9 9 8 8 9 9 8 8 9 9 10 9 9 9 9 9 10 10 10
4 3 4 4 2 2 2 2 1 1 1 1 1 1 1 1 2 2 2 2 2 3 3 1 0 5 4 2 3 3 2 5 5 3 4 3 2 1 3 4 4 4 4 3 3 3 4 4 5 5 5 5 5 5 5 6 6 6 6 7 8 9 9 9 9 9 9 9 9 9 9 8 8 9 9 9 10 10 10 10 10 10 10 10 10
3 3 2 2 1 1 1 1 1 0 1 1 1 2 2 2 2 2 2 2 2 3 3 3 3 3 5 3 3 5 1 5 7 7 3 5 5 4 5 5 5 4 5 5 4 5 5 4 4 5 6 6 7 7 7 7 8 9 9 8 9 9 8 8 9 9 9 9 9 9 9 9 9 9 9 9 9 9 10 10 10 11 11 12 12
2 2 1 2 2 1 1 1 1 1 2 2 1 2 3 3 4 4 4 4 3 4 5 4 4 6 6 4 3 5 4 4 7 8 6 5 4 4 4 4 4 4 4 5 4 5 5 5 5 5 6 6 7 8 8 9 9 9 9 9 9 9 9 9 9 9 9 9 9 9 9 9 9 9 10 10 11 10 10 10 10 11 12 12 10
2 4 4 3 1 0 0 1 2 2 2 3 3 3 4 4 4 4 4 4 4 5 5 5 5 5 4 4 5 4 5 5 5 4 5 5 4 4 5 5 5 4 4 5 5 4 5 6 6 6 6 6 7 7 8 8 8 8 9 9 9 9 9 9 9 9 9 9 9 9 10 10 10 10 10 11 11 11 11 11 10 10 11 11 11
1 1 2 1 2 0 1 1 1 2 2 2 2 2 2 3 4 5 4 4 4 4 4 4 5 4 4 5 5 5 5 5 4 5 5 5 5 4 5 5 5 5 5 5 5 6 6 6 6 7 7 7 8 8 8 7 7 7 8 9 9 10 9 9 9 9 10 9 10 10 10 11 10 11 11 10 11 11 12 12 12 11 10 11 12
0 0 0 0 2 2 2 2 2 2 2 2 2 2 2 3 3 3 3 3 4 4 4 4 4 3 2 3 5 3 4 5 5 5 5 5 5 5 5 5 6 6 6 6 6 6 6 6 6 7 7 8 8 8 9 9 9 8 8 9 10 10 10 10 10 10 10 10 10 10 10 11 11 11 12 12 12 12 12 12 12 12 12 11 11
1 1 2 2 2 3 3 2 2 2 3 3 3 2 2 3 2 2 2 2 2 3 4 4 3 4 2 4 3 2 5 5 6 6 6 6 5 6 5 5 5 5 6 7 7 6 7 7 7 7 8 8 8 8 9 9 10 10 10 10 10 10 10 10 10 10 11 11 11 11 11 11 12 12 13 13 12 12 12 12 12 12 12 13 12
1 1 1 2 3 3 3 3 3 4 3 3 2 3 2 1 0 1 1 1 3 4 4 4 4 4 3 3 1 4 5 5 5 6 6 6 5 6 6 6 5 5 5 6 6 6 6 7 7 7 8 8 8 9 9 10 10 9 10 10 10 11 11 11 11 11 11 11 12 12 13 13 13 12 13 13 13 13 13 14 14 14 14 13 12
1 1 1 2 3 3 3 3 3 3 3 2 2 1 0 1 1 1 2 3 3 3 3 3 3 3 4 3 3 4 5 5 5 5 5 6 5 5 6 6 6 6 6 6 6 6 6 7 7 8 8 9 9 9 9 9 10 10 10 10 11 11 11 11 11 11 11 11 12 13 13 13 13 13 14 13 12 13 14 14 15 15 14 12 12
1 1 1 2 2 2 1 2 2 1 1 1 1 0 1 2 1 2 2 3 3 3 3 4 4 5 5 5 5 5 5 5 5 5 5 5 5 5 5 6 6 6 6 7 7 7 7 8 8 8 9 9 9 9 9 9 10 10 10 10 10 11 10 11 11 11 11 12 12 12 13 13 13 13 13 12 13 13 14 16 15 14 15 15 14
1 0 1 1 1 1 1 1 2 3 1 1 1 2 1 2 2 3 3 4 4 5 5 4 4 4 5 5 5 4 5 5 5 4 4 4 5 6 6 6 6 7 7 7 7 8 8 8 9 9 9 9 10 9 9 9 9 9 10 10 10 10 10 11 11 11 11 11 12 12 13 13 12 12 13 13 13 13 13 14 14 14 15 15 15
2 1 1 2 2 2 3 2 1 0 1 2 2 3 3 3 4 4 4 4 4 4 3 3 3 3 4 4 4 4 4 4 4 5 6 7 7 7 7 7 7 7 7 8 8 8 8 9 9 10 10 10 10 10 10 9 9 9 9 9 9 10 10 10 10 10 11 11 11 11 12 13 14 14 14 13 13 15 15 14 14 15 14 15 16
2 2 2 2 3 2 2 2 2 2 3 3 3 3 3 3 2 1 1 2 2 3 3 3 3 4 4 4 4 5 5 5 6 6 6 6 6 6 6 7 7 7 7 7 8 8 9 9 9 9 10 10 10 9 9 9 9 8 9 9 9 8 10 12 11 12 10 11 12 13 14 14 13 14 13 14 14 13 14 14 13 13 14 13 13
3 3 3 4 3 2 2 1 1 0 0 1 1 1 1 1 1 1 2 2 2 2 3 3 3 3 4 4 5 5 5 6 6 6 6 5 5 5 6 7 7 7 7 8 8 9 9 9 9 9 9 9 9 9 9 9 9 9 9 9 8 12 11 11 12 12 15 14 13 13 13 13 14 15 15 15 15 14 14 14 14 14 13 13 13
3 3 3 4 4 3 2 1 1 1 1 1 1 1 1 1 0 1 1 1 2 2 2 2 3 3 4 4 4 5 5 5 5 6 5 5 5 6 6 6 7 8 8 8 8 8 8 8 8 8 8 9 9 9 9 9 9 9 8 8 12 13 14 13 14 15 13 12 13 13 13 15 15 15 14 14 14 15 15 14 13 13 13 14 14
4 4 4 3 3 3 2 2 2 2 2 2 2 1 1 1 0 1 1 1 1 1 2 2 3 3 3 3 4 4 5 5 5 5 6 6 6 6 6 8 9 9 8 8 8 7 7 8 7 7 8 8 8 8 8 8 8 7 10 11 12 12 11 11 12 14 16 15 13 12 13 15 16 16 16 15 15 15 15 15 14 14 13 13 14
Wind_Direction
191 194 192 197 198 198 196 190 192 195 199 193 203 201 203 211 213 226 197 207 198 202 207 211 206 206 218 216 226 220 226 236 230 227 227 229 232 244 257 253 262 270 273 281 282 277 277 281 284 285 289 289 285 281 281 272 262 263 268 276 283 279 267 271 280 288 288 284 294 303 319 321 317 317 312 319 322 334 322 320 317 316 318 319 320
193 190 190 191 200 202 205 192 190 191 200 198 213 207 207 203 205 206 219 207 204 207 208 213 213 212 218 214 216 220 220 223 237 232 234 231 237 237 238 240 256 267 274 276 276 278 278 280 285 285 280 284 290 285 277 285 284 282 279 284 298 296 272 284 290 292 297 296 291 304 304 302 302 309 318 318 322 318 316 315 311 316 315 313 316
192 183 182 187 197 203 202 196 192 196 206 210 221 227 219 215 200 212 222 215 200 213 209 212 206 213 225 223 216 221 217 228 229 232 239 241 246 253 253 247 254 264 267 268 272 274 273 275 277 276 274 282 288 286 288 287 293 297 297 300 301 303 299 279 289 293 300 306 312 305 315 317 309 312 311 310 306 299 302 311 321 321 316 310 310
183 178 183 192 198 198 199 204 204 203 209 213 221 230 234 224 210 220 226 230 211 204 216 219 205 208 224 226 226 231 226 229 231 226 227 234 238 237 241 243 251 257 261 268 272 268 271 275 278 284 286 284 287 290 288 286 288 284 290 292 288 293 297 290 270 287 299 302 308 311 314 313 309 308 310 307 306 310 307 312 303 303 311 313 309
187 190 192 194 193 201 208 206 206 208 214 215 215 221 232 235 222 224 228 233 228 214 204 213 215 214 226 228 229 230 234 234 231 237 234 231 233 242 243 241 247 250 258 263 264 268 271 272 278 282 282 282 283 282 286 292 294 296 295 298 294 293 293 284 278 271 279 288 299 300 299 292 295 299 306 317 318 310 304 298 305 307 304 310 312
177 174 182 194 200 204 212 216 216 215 216 217 215 216 222 228 230 221 226 232 228 234 224 220 216 217 223 233 238 237 237 236 234 241 244 237 230 237 240 242 246 248 252 256 258 259 266 270 274 273 275 276 284 289 291 290 289 287 293 296 299 297 288 283 270 265 267 278 284 295 293 304 308 305 305 306 314 314 313 310 303 295 290 310 319
169 178 184 200 203 211 216 221 222 218 211 217 220 216 219 226 229 231 223 227 232 238 233 228 219 226 222 227 235 233 236 240 237 238 243 245 241 240 248 246 245 245 249 253 259 260 260 263 262 260 263 265 273 279 282 282 283 286 282 283 290 290 291 292 289 282 282 286 287 283 291 289 291 300 300 293 287 274 291 313 315 318 302 304 305
129 133 170 191 210 213 221 217 211 193 182 169 199 214 221 221 226 234 235 232 237 241 245 239 227 224 226 226 227 228 229 235 234 236 240 244 245 244 244 251 254 252 254 252 254 258 258 259 263 262 257 256 257 266 269 275 278 284 283 279 282 281 287 293 292 291 289 292 289 297 295 294 288 281 285 275 288 280 258 294 302 304 309 303 296
139 137 134 164 194 204 199 189 179 157 156 155 161 167 174 180 174 197 212 234 238 239 244 250 249 240 230 224 224 223 227 229 229 226 228 231 238 246 245 246 250 255 257 261 257 252 254 256 257 257 248 240 244 254 266 274 282 285 282 275 272 275 278 284 282 283 282 284 289 283 280 283 285 287 294 290 294 300 303 290 284 282 286 290 291
153 87 100 126 152 186 188 178 191 190 161 157 166 167 168 176 186 184 178 198 217 231 238 241 249 253 249 234 227 225 227 231 215 212 226 245 245 251 247 245 251 254 256 262 262 258 258 259 263 251 242 244 248 248 246 248 247 258 275 284 284 282 281 283 281 279 281 283 285 290 292 290 295 297 295 292 289 282 287 285 288 297 298 292 287
118 139 175 198 199 190 166 184 201 208 195 190 197 197 195 188 190 207 215 198 182 172 220 228 235 240 244 248 239 230 230 232 180 204 216 229 250 259 259 258 251 248 251 252 261 267 268 264 266 253 238 239 242 238 244 246 245 246 251 255 262 271 283 283 282 283 280 281 284 283 286 289 290 295 293 295 296 298 296 293 287 292 295 303 305
122 123 144 177 198 199 195 181 193 199 195 204 212 209 198 199 208 218 227 223 211 219 209 192 195 216 223 235 243 244 239 64 78 182 216 219 222 245 253 258 256 254 254 257 261 269 275 277 275 278 268 262 271 271 248 238 239 247 250 254 255 250 245 256 272 278 274 277 279 280 284 281 283 288 292 298 302 301 296 295 285 285 290 290 292
97 97 103 110 156 189 185 182 193 197 191 185 178 181 192 201 217 221 223 223 231 231 229 217 204 207 200 198 253 339 87 47 31 73 155 200 203 220 242 245 253 253 256 257 262 265 269 276 281 279 283 267 250 265 269 274 247 232 242 250 253 250 247 239 238 248 271 273 275 276 272 276 280 281 284 288 293 292 295 291 292 290 287 286 282
90 87 83 83 81 94 110 118 118 133 141 139 138 144 146 156 166 176 195 205 218 224 230 229 220 208 220 245 271 315 81 36 6 17 32 184 181 195 222 236 245 255 258 261 267 270 272 274 277 278 280 276 269 265 272 274 281 275 261 256 259 251 233 229 233 235 237 254 264 269 271 270 270 274 278 278 277 278 285 286 293 290 287 282 291
66 67 58 54 48 66 87 94 89 83 88 99 103 105 108 107 114 116 127 157 180 197 211 227 232 238 242 245 246 246 58 8 19 15 59 158 171 205 196 211 220 243 253 258 261 264 267 268 269 273 278 275 274 281 286 283 280 274 271 271 269 270 270 263 248 232 219 224 242 253 263 269 272 275 276 274 271 268 267 278 281 281 280 280 275
73 77 75 67 62 57 64 64 62 81 91 99 104 106 107 106 111 114 116 116 121 149 139 158 154 166 177 180 174 92 51 16 20 28 13 14 194 201 173 197 215 219 221 229 243 251 258 261 264 267 271 274 277 220 244 268 275 272 270 270 272 270 267 256 243 241 250 259 256 260 265 268 272 276 280 283 285 280 281 273 266 260 266 273 277
77 74 71 68 67 60 61 76 78 72 64 76 88 73 78 97 107 116 109 82 68 55 45 41 45 64 139 133 101 83 57 27 21 24 19 360 254 140 158 195 206 223 214 211 225 235 239 246 254 268 272 272 295 193 229 241 269 271 272 275 278 281 277 278 207 217 230 237 246 255 264 269 271 271 271 269 262 278 289 278 268 268 271 274 282
72 67 65 64 61 59 55 59 57 61 77 89 89 84 85 80 89 84 81 79 74 67 63 59 48 51 71 86 91 88 59 38 28 28 27 14 2 64 46 289 234 236 223 204 252 244 252 266 270 270 277 299 57 55 76 235 257 264 268 274 277 274 275 281 294 232 213 223 235 243 249 255 259 262 267 268 266 241 233 247 261 273 271 269 278
62 59 56 51 56 57 61 70 71 82 84 77 81 88 81 82 82 80 79 82 80 77 73 72 70 60 55 64 65 65 60 52 38 29 30 24 16 36 28 350 315 307 294 278 267 264 258 243 282 323 348 20 34 47 249 260 269 269 273 276 275 277 283 313 312 312 317 313 293 269 257 242 243 245 248 245 248 230 225 244 264 261 264 267 273
75 76 71 64 60 60 61 65 69 70 74 68 64 68 74 78 79 83 80 81 77 71 71 72 75 66 55 64 74 73 66 56 45 36 33 30 20 20 34 48 30 355 337 336 311 308 297 286 137 94 63 39 31 25 24 333 299 295 292 279 281 281 310 323 311 308 308 301 295 293 287 289 283 274 267 258 241 220 220 230 243 253 259 266 268
76 73 73 72 68 67 65 61 71 72 71 72 63 56 55 63 58 64 73 80 87 87 84 80 81 85 83 80 75 70 65 67 67 54 43 39 30 23 48 40 21 4 3 358 341 324 334 337 6 73 48 12 352 336 316 309 299 295 286 283 285 310 323 290 292 288 288 288 285 283 284 282 281 274 269 264 262 258 242 230 239 241 245 258 269
72 72 68 66 64 63 65 69 75 76 67 69 71 69 62 65 74 77 77 86 95 95 93 94 97 92 85 71 66 73 68 61 59 68 45 39 41 33 38 44 20 6 5 7 358 7 360 9 347 22 2 344 332 328 311 291 279 271 282 298 305 305 294 286 278 274 272 285 295 296 294 290 287 286 285 284 282 275 273 272 262 253 246 255 261
78 75 71 69 66 63 61 64 72 78 81 80 81 77 72 75 79 88 100 104 102 102 99 102 99 85 72 53 48 41 27 43 46 37 46 28 31 31 34 37 5 18 26 6 354 347 349 346 346 349 332 324 319 317 313 308 274 255 285 299 294 304 296 279 286 279 279 280 285 288 292 293 292 291 287 291 290 288 290 286 284 280 275 274 270
80 81 81 79 78 76 74 76 75 78 83 87 90 93 88 87 89 89 93 100 103 95 85 77 66 60 51 50 44 33 28 15 54 35 32 47 42 35 37 39 38 25 8 19 355 352 350 350 333 317 310 308 308 309 308 303 288 291 293 291 293 283 284 289 284 287 291 289 283 279 283 292 293 292 297 301 301 306 301 295 290 283 279 279 278
89 85 81 79 79 86 83 77 78 79 83 83 91 95 97 101 99 96 97 91 89 86 79 69 63 55 46 43 35 30 23 22 25 32 26 40 41 25 30 35 31 13 29 33 11 360 319 301 297 300 299 299 296 279 277 323 320 304 297 292 281 278 288 290 295 297 291 289 286 286 283 284 292 297 299 298 300 296 287 287 290 292 291 287 284
90 86 85 78 71 83 105 100 95 95 94 97 95 91 95 90 92 94 89 83 73 71 65 62 59 57 58 50 44 39 34 31 30 25 16 25 42 34 40 49 38 35 39 22 295 274 274 287 300 321 349 2 4 27 18 3 341 336 316 305 310 323 314 306 299 296 299 299 301 296 294 295 294 306 309 301 295 296 303 302 304 300 298 295 292
86 81 76 77 71 60 63 73 90 98 105 116 112 107 98 94 92 87 78 71 72 70 68 65 65 67 69 64 62 56 48 42 32 25 17 12 20 26 38 55 49 23 30 12 344 338 10 23 9 353 8 11 21 5 19 5 1 3 2 1 354 352 356 353 341 330 330 331 322 318 313 310 309 300 292 297 297 296 300 300 298 300 304 303 300
83 76 70 66 67 62 69 50 49 87 87 107 120 112 99 89 88 76 62 59 67 64 68 65 57 63 78 87 80 71 66 52 36 17 13 7 7 18 37 34 28 27 19 17 354 354 6 12 9 16 11 8 13 9 10 11 3 358 359 355 350 349 356 349 0 8 355 337 330 331 328 322 311 310 308 304 304 305 305 302 301 299 298 300 293
92 83 75 73 72 70 70 81 78 91 104 105 79 42 37 75 87 83 63 43 18 41 77 82 83 74 79 80 73 78 59 52 45 16 348 342 341 357 27 26 10 16 27 336 304 358 8 15 15 14 10 5 4 1 359 356 3 355 355 357 344 352 358 355 359 358 349 337 339 336 332 333 326 325 318 311 306 305 304 304 305 302 299 295 287
101 93 93 87 79 82 89 92 82 103 123 131 117 87 45 31 14 63 101 63 54 28 3 43 30 61 97 73 35 36 53 55 47 13 326 311 304 293 302 312 312 314 318 309 283 347 16 12 13 11 5 4 1 357 354 349 351 350 350 350 343 358 351 349 0 352 341 332 329 330 329 323 320 323 324 327 329 323 323 312 299 296 294 291 292
119 124 120 115 98 103 107 103 103 98 109 129 139 130 121 68 25 25 41 49 42 37 51 31 5 346 347 111 74 37 48 50 17 337 331 311 301 291 291 301 308 307 312 322 320 28 18 13 15 10 5 2 7 359 352 349 349 342 346 342 347 350 348 347 355 340 333 330 330 329 323 322 320 324 323 322 318 316 314 314 312 307 301 299 294
139 133 132 132 132 126 120 115 118 122 122 121 129 143 166 147 123 31 64 96 74 68 69 45 26 32 22 18 34 122 126 56 5 347 322 322 307 296 285 317 334 341 328 299 351 28 21 18 16 15 4 5 9 357 353 351 344 340 337 340 339 346 341 344 341 330 329 330 331 326 325 325 325 323 319 316 321 319 322 323 320 315 309 305 301
142 141 139 138 135 131 139 134 130 134 140 141 143 158 162 194 225 155 119 91 123 115 79 71 77 77 65 63 48 45 353 324 324 326 312 315 322 306 307 326 347 340 317 349 35 24 22 22 14 17 8 4 1 357 350 346 341 334 334 333 333 335 336 337 330 327 325 327 323 322 324 323 323 319 316 323 323 320 319 315 317 317 320 320 321
133 143 145 139 131 126 131 135 141 137 127 128 138 151 148 169 155 180 185 158 140 125 112 99 100 103 84 95 146 82 319 325 320 314 315 323 303 305 282 290 307 297 303 11 16 19 13 13 13 13 4 358 355 351 343 343 339 335 330 329 329 327 328 332 327 330 325 324 323 322 322 322 321 320 323 322 320 317 314 316 320 321 322 323 323
127 121 117 113 129 113 119 137 133 122 125 134 147 152 144 147 163 171 178 218 243 201 146 125 105 75 97 111 182 280 317 327 320 306 296 302 314 322 278 247 257 256 292 346 346 345 351 346 344 347 349 347 348 338 337 335 332 333 331 326 325 327 326 324 325 326 322 320 317 320 323 317 318 321 320 319 320 320 320 321 321 323 321 321 319
135 131 136 135 128 130 129 131 115 120 104 128 170 181 168 186 194 171 186 216 206 224 229 281 252 122 148 183 192 209 274 334 345 325 283 270 276 293 278 292 294 301 305 305 315 324 320 325 324 327 330 332 335 334 334 330 330 328 330 326 321 319 318 316 318 319 317 313 313 313 313 312 316 317 317 315 316 317 317 319 318 317 315 312 315
138 139 138 123 131 150 153 151 137 104 125 150 257 228 230 246 243 241 242 225 230 236 256 259 265 206 191 206 160 189 213 323 310 308 253 221 206 212 273 291 296 300 298 304 308 309 306 310 313 314 319 320 322 325 327 325 327 325 325 324 320 312 311 316 310 308 306 308 310 310 312 312 313 312 313 312 312 313 312 313 312 310 310 310 309
113 129 138 113 116 113 160 213 138 182 218 225 248 256 252 246 250 255 258 259 262 271 264 265 266 276 281 277 327 319 329 288 253 255 207 189 202 248 274 285 286 289 297 304 309 302 302 303 306 312 315 315 318 321 322 322 325 323 322 321 317 312 308 303 296 299 303 303 305 308 308 307 308 308 308 305 305 307 306 308 309 310 309 308 308
126 101 105 129 102 302 218 239 198 243 264 258 267 268 256 249 250 252 249 252 260 264 270 272 277 282 293 318 303 320 306 297 306 306 302 299 295 292 290 291 290 291 293 292 300 304 305 304 306 307 309 313 313 314 316 318 318 318 317 314 313 312 311 310 310 306 304 305 305 305 304 303 303 303 302 300 300 301 302 303 302 303 305 306 305
140 185 122 184 246 215 286 272 264 275 282 282 259 248 233 247 251 246 245 250 255 263 269 273 278 285 305 320 338 334 308 308 304 310 306 303 301 305 301 298 298 298 295 295 299 296 295 297 302 303 306 307 310 313 314 310 307 306 307 308 311 309 307 306 306 306 303 304 304 303 302 302 302 301 300 297 297 299 299 298 296 295 294 296 299
174 98 238 75 357 296 269 274 270 292 296 284 268 244 244 246 243 246 249 251 259 262 266 278 285 292 346 38 55 17 314 298 298 297 299 296 298 297 299 297 300 302 297 296 294 298 300 300 301 301 304 306 309 309 311 312 311 307 307 309 306 304 305 303 302 301 301 299 299 299 299 300 301 301 300 300 300 296 292 292 292 292 291 291 293
176 194 270 269 244 282 292 285 288 285 291 280 266 253 234 217 203 223 250 270 267 274 274 275 277 288 17 68 51 334 295 290 294 294 296 295 295 295 297 301 297 299 298 300 303 303 303 302 300 301 302 304 305 306 306 306 308 309 307 306 304 301 300 300 300 300 299 297 297 296 298 298 299 296 293 293 294 293 293 293 293 294 294 294 293
188 255 253 282 276 282 288 292 286 278 275 253 243 239 223 203 169 140 210 250 266 272 272 273 278 289 300 100 25 307 294 294 294 293 291 295 299 298 295 297 300 305 302 300 300 301 298 298 298 295 298 299 300 301 302 303 306 305 303 302 300 298 296 297 298 297 298 298 298 298 298 298 296 296 296 295 294 293 292 292 291 292 292 289 290
198 233 255 273 285 291 280 273 264 256 251 282 299 269 254 113 83 255 268 270 267 273 274 286 296 295 290 279 264 284 292 292 291 288 293 293 295 297 300 304 309 308 305 301 300 300 299 296 295 295 294 294 294 297 296 298 299 299 301 299 297 297 296 295 297 298 299 300 299 298 296 295 295 294 293 293 293 292 291 290 292 290 288 287 284
195 237 261 262 262 265 244 230 236 249 65 118 174 219 281 277 280 267 273 278 281 281 277 276 276 284 285 285 285 286 289 288 288 288 292 297 299 301 303 306 306 306 304 301 301 302 299 296 294 294 292 291 292 292 292 294 295 296 296 298 295 294 296 297 299 300 301 299 299 298 296 295 295 295 293 292 290 291 291 291 288 288 288 286 286
160 188 243 225 194 210 190 97 81 72 92 200 264 259 278 285 287 293 292 285 280 282 284 284 281 283 282 284 288 288 289 291 295 300 302 299 299 297 297 299 302 304 302 303 300 297 295 296 297 294 294 293 293 293 292 292 290 289 290 291 293 294 297 300 302 304 305 304 300 299 298 295 291 289 289 290 290 288 285 285 287 285 285 286 288
175 204 187 180 173 129 111 130 159 183 231 257 269 276 275 272 278 280 278 285 292 294 287 289 295 292 291 291 291 293 298 298 298 291 291 295 294 294 295 298 299 299 299 297 297 296 297 296 295 294 294 295 295 293 293 293 294 294 294 294 294 299 296 305 315 313 306 302 297 296 297 295 293 292 289 286 286 288 285 284 285 283 284 286 288
171 167 166 162 164 171 184 224 243 263 265 261 267 271 268 267 269 284 297 293 289 286 288 291 294 294 299 301 303 299 297 294 295 295 296 296 298 299 305 305 300 298 299 299 298 299 299 297 297 296 295 295 296 296 295 298 294 298 295 298 297 308 340 344 314 308 305 307 304 299 295 292 290 289 288 286 283 283 283 280 276 275 276 277 278
176 162 161 163 178 186 188 195 226 280 314 274 215 203 162 139 168 256 276 284 287 289 294 298 298 305 309 307 305 303 302 300 297 298 297 299 301 306 306 304 305 308 306 301 300 299 300 298 298 299 298 298 297 300 298 299 301 299 304 297 329 4 333 305 300 302 302 301 296 296 293 291 288 285 282 279 277 277 276 275 276 277 275 271 272
156 156 160 156 162 162 152 144 151 147 151 130 118 132 140 144 221 279 298 309 306 295 293 296 295 298 301 304 303 303 299 298 300 299 297 298 301 304 308 313 311 305 304 305 306 305 302 302 302 301 300 300 302 302 303 301 305 309 305 328 340 312 299 295 290 291 296 302 299 293 288 284 282 280 279 278 276 274 271 269 269 269 268 270 273
147 153 157 154 154 156 159 158 145 151 131 125 139 132 161 176 205 313 317 324 299 298 298 297 301 302 302 301 304 304 305 303 302 301 300 302 305 308 309 307 308 309 310 309 307 305 303 303 303 305 305 304 302 303 304 309 306 323 342 326 304 297 295 292 304 305 300 296 295 288 280 276 274 275 276 277 278 278 275 275 273 271 269 269 272